Napa County, CA

11:19 PM PDT on July 24, 2017 (GMT -0700)
Napa County

Weather History for KAPC - March, 2014

Change the Weather History Date:

Saturday, March 29, 2014

  Actual Average Record
Temperature  
Mean Temperature 52 °F 53 °F  
Max Temperature 58 °F 66 °F 78 °F (2013)
Min Temperature 46 °F 40 °F 30 °F (2007)
Degree Days  
Heating Degree Days 13    
Month to date heating degree days 271  
Since 1 July heating degree days 2478  
Cooling Degree Days 0    
Month to date cooling degree days 0  
Year to date cooling degree days 0  
Growing Degree Days 2 (Base 50)    
Moisture  
Dew Point 52 °F    
Average Humidity 93    
Maximum Humidity 100    
Minimum Humidity 86    
Precipitation  
Precipitation 0.44 in - 0.91 in (1941)
Month to date precipitation 1.16  
Year to date precipitation 5.92  
Since 1 July precipitation 8.12  
Sea Level Pressure  
Sea Level Pressure 30.03 in    
Wind  
Wind Speed 10 mph (SW)    
Max Wind Speed 18 mph    
Max Gust Speed 23 mph    
Visibility 8 miles    
Events Rain    
T = Trace of Precipitation, MM = Missing Value Source: NWS Daily Summary

Daily Weather History Graph

Daily Weather History Graph

Search for Another Location

Airport or City:

Trip Planner

Search our weather history database for the weather conditions in past years. The results will help you decide how hot, cold, wet, or windy it might be!

Date:

Astronomy

Mar. 29, 2014 Rise Set
Actual Time 6:58 AM PDT 7:29 PM PDT
Civil Twilight 6:32 AM PDT 7:56 PM PDT
Nautical Twilight 6:00 AM PDT 8:27 PM PDT
Astronomical Twilight 5:29 AM PDT 8:59 PM PDT
Moon 6:09 AM PDT (3/29) 6:41 PM PDT (3/29)
Length of Visible Light 13h 24m
Length of Day
12h 31m
Waning Crescent, 1% of the Moon is Illuminated
Mar 29
Waning Crescent
Mar 30
New
Apr 7
First Quarter
Apr 15
Full
Apr 22
Last Quarter

Hourly Weather History & Observations

Time (PDT) Temp. Dew Point Humidity Pressure Visibility Wind Dir Wind Speed Gust Speed Precip Events Conditions
12:11 AM 57.0 °F 53.1 °F 87% 30.11 in 10.0 mi South 13.8 mph - N/A   Overcast
12:54 AM 57.0 °F 53.1 °F 87% 30.09 in 10.0 mi SSW 15.0 mph - N/A   Overcast
1:54 AM 57.9 °F 53.1 °F 84% 30.08 in 10.0 mi South 11.5 mph - N/A   Overcast
2:54 AM 57.9 °F 53.1 °F 84% 30.06 in 10.0 mi South 12.7 mph 20.7 mph N/A   Overcast
3:54 AM 57.9 °F 53.1 °F 84% 30.04 in 10.0 mi South 16.1 mph - N/A   Overcast
4:54 AM 55.9 °F 54.0 °F 93% 30.03 in 5.0 mi South 12.7 mph - 0.01 in Rain Light Rain
5:54 AM 55.0 °F 53.1 °F 93% 30.03 in 4.0 mi South 12.7 mph - 0.01 in Rain Light Rain
6:37 AM 55.0 °F 53.1 °F 93% 30.05 in 6.0 mi South 9.2 mph - 0.00 in Rain Light Rain
6:54 AM 55.0 °F 53.1 °F 93% 30.02 in 4.0 mi South 9.2 mph - 0.00 in Rain Light Rain
7:10 AM 55.0 °F 53.1 °F 93% 30.04 in 7.0 mi South 9.2 mph - 0.01 in Rain Light Rain
7:54 AM 55.9 °F 53.1 °F 90% 30.01 in 10.0 mi SSE 12.7 mph - 0.01 in Rain Light Rain
8:54 AM 55.0 °F 54.0 °F 96% 30.02 in 4.0 mi SSE 6.9 mph - 0.12 in Rain Rain
9:20 AM 55.9 °F 55.0 °F 97% 30.05 in 4.0 mi South 10.4 mph - 0.06 in Rain Rain
9:54 AM 55.9 °F 55.0 °F 97% 30.03 in 4.0 mi South 12.7 mph - 0.12 in Rain Rain
10:18 AM 55.9 °F 55.0 °F 97% 30.05 in 4.0 mi South 11.5 mph - 0.03 in Rain Rain
10:54 AM 54.0 °F 53.1 °F 97% 30.03 in 2.5 mi SSW 4.6 mph - 0.09 in Rain Rain
10:57 AM 54.0 °F 54.0 °F 100% 30.06 in 3.0 mi WSW 5.8 mph - 0.00 in Rain Rain
11:19 AM 54.0 °F 53.1 °F 97% 30.07 in 4.0 mi WSW 10.4 mph - 0.03 in Rain Light Rain
11:45 AM 54.0 °F 53.1 °F 97% 30.07 in 2.5 mi West 9.2 mph - 0.06 in Rain Rain
11:54 AM 54.0 °F 53.1 °F 97% 30.05 in 4.0 mi West 10.4 mph - 0.07 in Rain Light Rain
12:02 PM 54.0 °F 53.1 °F 97% 30.08 in 10.0 mi West 11.5 mph - 0.01 in Rain Light Rain
12:54 PM 55.0 °F 53.1 °F 93% 30.04 in 10.0 mi West 9.2 mph - 0.01 in   Overcast
1:04 PM 55.0 °F 53.1 °F 93% 30.06 in 10.0 mi NW 3.5 mph - N/A   Overcast
1:54 PM 55.0 °F 53.1 °F 93% 30.02 in 10.0 mi WSW 8.1 mph - 0.00 in Rain Light Rain
2:54 PM 55.0 °F 53.1 °F 93% 30.02 in 10.0 mi WSW 9.2 mph - 0.00 in Rain Light Rain
3:54 PM 55.0 °F 52.0 °F 89% 30.02 in 10.0 mi WSW 10.4 mph - 0.00 in Rain Light Rain
4:54 PM 55.0 °F 52.0 °F 89% 29.99 in 10.0 mi SW 11.5 mph - 0.00 in   Overcast
5:54 PM 54.0 °F 51.1 °F 90% 29.98 in 10.0 mi West 5.8 mph - N/A   Overcast
6:54 PM 53.1 °F 51.1 °F 93% 29.99 in 10.0 mi WSW 9.2 mph - N/A   Overcast
7:54 PM 53.1 °F 50.0 °F 89% 29.99 in 10.0 mi WSW 9.2 mph - N/A   Mostly Cloudy
8:19 PM 53.1 °F 50.0 °F 89% 30.02 in 10.0 mi WSW 4.6 mph - N/A   Overcast
8:29 PM 53.1 °F 50.0 °F 89% 30.02 in 10.0 mi West 8.1 mph - N/A   Overcast
8:54 PM 52.0 °F 50.0 °F 93% 29.99 in 10.0 mi West 5.8 mph - N/A   Overcast
9:54 PM 52.0 °F 50.0 °F 93% 29.99 in 10.0 mi West 15.0 mph - N/A   Scattered Clouds
10:54 PM 51.1 °F 48.9 °F 92% 30.00 in 10.0 mi West 11.5 mph - N/A   Mostly Cloudy
11:51 PM 48.2 °F 46.4 °F 93% 30.03 in 10.0 mi NNW 3.5 mph - N/A   Partly Cloudy
11:54 PM 48.0 °F 46.9 °F 96% 30.00 in 10.0 mi Variable 3.5 mph - N/A   Partly Cloudy